Weather History for Lakeland Region, FL

Change the Weather History Date:

Tuesday, February 12, 2013

  Actual Average Record
Temperature  
Mean Temperature 72 °F -  
Max Temperature 84 °F 71 °F 84 °F (2013)
Min Temperature 59 °F 52 °F 32 °F (2012)
Cooling Degree Days 6    
Growing Degree Days 22 (Base 50)    
Moisture  
Dew Point 62 °F    
Average Humidity 86    
Maximum Humidity 100    
Minimum Humidity 42    
Precipitation  
Precipitation 0.00 in - - ()
Sea Level Pressure  
Sea Level Pressure 30.06 in    
Wind  
Wind Speed 4 mph (SSW)    
Max Wind Speed 17 mph    
Max Gust Speed 22 mph    
Visibility 6 miles    
Events Fog    
Averages and records for this station are not official NWS values.
T = Trace of Precipitation, MM = Missing Value Source: NWS Daily Summary

Daily Weather History Graph

Daily Weather History Graph

Search for Another Location

Airport:

Trip Planner

Search our weather history database for the weather conditions in past years. The results will help you decide how hot, cold, wet, or windy it might be!

Date:

Astronomy

Feb. 12, 2013 Rise Set
Actual Time 7:07 AM EST 6:17 PM EST
Civil Twilight 6:43 AM EST 6:41 PM EST
Nautical Twilight 6:16 AM EST 7:08 PM EST
Astronomical Twilight 5:48 AM EST 7:36 PM EST
Moon 8:22 AM EST (2/12) 8:55 PM EST (2/12)
Length of Visible Light 11h 57m
Length of Day
11h 09m
Waxing Crescent, 7% of the Moon is Illuminated
Feb 12
Waxing Crescent
Feb 17
First Quarter
Feb 25
Full
Mar 4
Last Quarter
Mar 11
New

Hourly Weather History & Observations

Time (EST) Temp. Heat Index Dew Point Humidity Pressure Visibility Wind Dir Wind Speed Gust Speed Precip Events Conditions
12:15 AM 60.8 °F - 60.8 °F 100% 30.12 in 7.0 mi South 3.5 mph - N/A   Clear
12:35 AM 60.8 °F - 60.8 °F 100% 30.12 in 5.0 mi South 3.5 mph - N/A   Clear
12:55 AM 60.8 °F - 59.0 °F 94% 30.11 in 5.0 mi South 4.6 mph - N/A   Clear
1:15 AM 62.6 °F - 60.8 °F 94% 30.10 in 7.0 mi Calm Calm - N/A   Clear
1:35 AM 62.6 °F - 60.8 °F 94% 30.10 in 7.0 mi Calm Calm - N/A   Clear
1:55 AM 62.6 °F - 60.8 °F 94% 30.11 in 5.0 mi Calm Calm - N/A   Clear
2:15 AM 60.8 °F - 60.8 °F 100% 30.10 in 3.0 mi Calm Calm - N/A   Clear
2:35 AM 60.8 °F - 60.8 °F 100% 30.09 in 5.0 mi Calm Calm - N/A   Clear
2:55 AM 60.8 °F - 60.8 °F 100% 30.09 in 0.2 mi Calm Calm - N/A Fog Fog
3:15 AM 60.8 °F - 59.0 °F 94% 30.08 in 0.2 mi Calm Calm - N/A Fog Fog
3:35 AM 60.8 °F - 59.0 °F 94% 30.08 in 0.2 mi Calm Calm - N/A Fog Fog
3:55 AM 60.8 °F - 60.8 °F 100% 30.08 in 0.2 mi Calm Calm - N/A Fog Fog
4:15 AM 59.0 °F - 59.0 °F 100% 30.07 in 0.2 mi Calm Calm - N/A Fog Fog
4:35 AM 59.0 °F - 59.0 °F 100% 30.07 in 0.2 mi SSE 3.5 mph - N/A Fog Fog
4:55 AM 59.0 °F - 57.2 °F 94% 30.07 in 0.5 mi Calm Calm - N/A Fog Fog
5:15 AM 59.0 °F - 59.0 °F 100% 30.07 in 0.5 mi Calm Calm - N/A Fog Fog
5:35 AM 60.8 °F - 60.8 °F 100% 30.08 in 0.5 mi Calm Calm - N/A Fog Fog
5:50 AM 60.8 °F - 60.8 °F 100% 30.08 in 4.0 mi Calm Calm - N/A   Clear
6:50 AM 62.6 °F - 60.8 °F 94% 30.09 in 3.0 mi Calm Calm - N/A Fog Clear
7:50 AM 59.0 °F - 57.2 °F 94% 30.11 in 4.0 mi Calm Calm - N/A   Scattered Clouds
8:50 AM 66.2 °F - 66.2 °F 100% 30.12 in 7.0 mi South 4.6 mph - N/A   Partly Cloudy
9:14 AM 69.8 °F - 66.2 °F 88% 30.12 in 6.0 mi South 4.6 mph - N/A   Mostly Cloudy
9:50 AM 71.6 °F - 66.2 °F 83% 30.12 in 10.0 mi South 5.8 mph - N/A   Mostly Cloudy
10:50 AM 75.2 °F - 64.4 °F 69% 30.11 in 10.0 mi SSW 11.5 mph - N/A   Mostly Cloudy
11:50 AM 78.8 °F - 62.6 °F 57% 30.09 in 15.0 mi SW 6.9 mph - N/A   Mostly Cloudy
12:50 PM 80.6 °F 81.5 °F 60.8 °F 51% 30.06 in 15.0 mi SW 9.2 mph - N/A   Mostly Cloudy
1:50 PM 82.4 °F 82.0 °F 57.2 °F 42% 30.01 in 15.0 mi WSW 11.5 mph 20.7 mph N/A   Mostly Cloudy
2:50 PM 84.2 °F 83.8 °F 59.0 °F 42% 29.97 in 15.0 mi SW 13.8 mph 20.7 mph N/A   Mostly Cloudy
3:50 PM 82.4 °F 82.5 °F 59.0 °F 45% 29.98 in 15.0 mi SW 11.5 mph - N/A   Mostly Cloudy
4:54 PM 82.4 °F 82.9 °F 60.8 °F 48% 29.97 in 15.0 mi SW 17.3 mph 21.9 mph N/A   Mostly Cloudy
5:50 PM 80.6 °F 81.8 °F 62.6 °F 54% 29.96 in 15.0 mi SW 9.2 mph - N/A   Mostly Cloudy
7:50 PM 71.6 °F - 62.6 °F 73% 29.98 in 10.0 mi SW 5.8 mph - N/A   Clear
8:50 PM 69.8 °F - 64.4 °F 83% 29.99 in 10.0 mi SSW 6.9 mph - N/A   Clear
9:50 PM 69.8 °F - 66.2 °F 88% 30.00 in 10.0 mi SSW 6.9 mph - N/A   Clear
9:55 PM 68.0 °F - 66.2 °F 94% 30.00 in 7.0 mi SSW 6.9 mph - N/A   Scattered Clouds
10:15 PM 68.0 °F - 66.2 °F 94% 30.00 in 5.0 mi SSW 6.9 mph - N/A   Scattered Clouds
10:35 PM 68.0 °F - 66.2 °F 94% 30.00 in 5.0 mi SSW 6.9 mph - N/A   Scattered Clouds
10:55 PM 68.0 °F - 66.2 °F 94% 29.99 in 4.0 mi SSW 6.9 mph - N/A   Scattered Clouds
11:15 PM 68.0 °F - 68.0 °F 100% 29.99 in 5.0 mi SSW 6.9 mph - N/A   Mostly Cloudy
11:35 PM 69.8 °F - 68.0 °F 94% 29.99 in 5.0 mi SW 8.1 mph - N/A   Overcast
11:55 PM 69.8 °F - 68.0 °F 94% 29.99 in 7.0 mi SW 8.1 mph - N/A   Overcast